Location: Harwich
(41.7160°N, 69.9939°W)
Time: 07:08:45
(UTC+02:00)

YUBILEINY - Visible Passes

Search period start: 19 September 2024 00:00
Search period end: 29 September 2024 00:00
Orbit: 1478 x 1508 km, 82.5° (Epoch: 18 September)

Date Brightness Start Highest point End Pass type
(mag) Time Alt. Az. Time Alt. Az. Time Alt. Az.
19 Sep ? 07:49:04 28° E 07:50:10 29° E 07:57:20 10° NNE visible
19 Sep ? 09:45:00 57° WSW 09:46:17 62° WNW 09:55:05 10° N visible
19 Sep ? 11:41:51 10° WNW 11:45:12 12° NW 11:48:34 10° NNW visible
20 Sep ? 07:00:17 14° E 07:01:25 15° ENE 07:05:42 10° NE visible
20 Sep ? 08:56:12 76° ESE 08:56:37 78° E 09:05:28 10° N visible
20 Sep ? 10:52:09 22° W 10:54:23 24° WNW 11:01:11 10° NNW visible
21 Sep ? 08:07:24 44° E 08:07:24 44° E 08:15:27 10° NNE visible
21 Sep ? 10:03:20 41° W 10:04:03 42° WNW 10:12:22 10° N visible
22 Sep ? 07:18:33 24° ENE 07:18:33 24° ENE 07:24:50 10° NNE visible
22 Sep ? 09:14:28 73° WNW 09:14:28 73° WNW 09:23:01 10° N visible
22 Sep ? 11:10:24 14° WNW 11:12:41 15° WNW 11:17:28 10° NNW visible
23 Sep ? 06:29:41 11° ENE 06:29:41 11° ENE 06:32:06 10° NE visible
23 Sep ? 08:25:37 62° ENE 08:25:37 62° ENE 08:33:18 10° NNE visible
23 Sep ? 10:21:32 28° WNW 10:22:02 28° WNW 10:29:24 10° N visible
24 Sep ? 07:36:43 35° ENE 07:36:43 35° ENE 07:43:08 10° NNE visible
24 Sep ? 09:32:38 49° WNW 09:32:38 49° WNW 09:40:23 10° N visible
25 Sep ? 06:47:49 19° ENE 06:47:49 19° ENE 06:52:12 10° NE visible
25 Sep ? 08:43:44 64° N 08:43:44 64° N 08:50:55 10° N visible
25 Sep ? 10:39:39 18° WNW 10:40:13 19° WNW 10:46:00 10° NNW visible
26 Sep ? 07:54:48 45° NE 07:54:48 45° NE 08:01:06 10° NNE visible
26 Sep ? 09:50:44 33° WNW 09:50:44 33° WNW 09:57:32 10° N visible
27 Sep ? 07:05:51 27° NE 07:05:51 27° NE 07:10:45 10° NNE visible
27 Sep ? 09:01:46 48° NNW 09:01:46 48° NNW 09:08:22 10° N visible
27 Sep ? 10:57:41 11° WNW 10:58:39 11° NW 11:01:20 10° NW visible
28 Sep ? 06:16:53 14° ENE 06:16:53 14° ENE 06:19:21 10° NE visible
28 Sep ? 08:12:48 49° NNE 08:12:48 49° NNE 08:18:48 10° N visible
28 Sep ? 10:08:43 22° NW 10:08:43 22° NW 10:14:22 10° NNW visible
